Location: Newark
(45.9456°N, 15.4064°E)
Time: 20:15:11
(UTC+00:00)

Courier 1B Rocket - Pass Details

Date: 25 January 2020
Orbit: 920 x 1202 km, 28.2° (Epoch: 19 February)

Event Time Altitude Azimuth Distance (km) Brightness Sun altitude
Rises 10:52:44 0° 223° (SW) 3,916 8.8 24.9°
Reaches altitude 10° 10:56:59 10° 201° (SSW) 2,896 8.8 24.9°
Maximum altitude 11:00:35 15° 170° (S) 2,512 9.3 25.0°
Drops below altitude 10° 11:04:04 10° 138° (SE) 2,789 8.3 25.0°
Sets 11:08:01 0° 116° (ESE) 3,682 8.4 25.0°
